DCLAM BIRK-EICK

Flight info

Callsign DCLAM
Flight time N/A
Altitude 41000
Route METIL DCT 63N020W DCT 54N010W/N0428F410 DCT SHA DCT KURUM KURUM1R
Aircraft E55P/M-SDGRWY/L

Departure

Time 2026-04-20 18:33
Airport Reykjavík Domestic Airport (BIRK)

Arrival

Time N/A
Airport Cork International Airport (EICK)
Time Latitude Longitude Altitude Speed Heading
2026-04-20 18:17 64.13134 -21.93489 37 ft 0 kts 173°
2026-04-20 18:18 64.13133 -21.93489 37 ft 0 kts 173°
2026-04-20 18:28 64.13124 -21.93495 37 ft 2 kts 235°
2026-04-20 18:28 64.13127 -21.93541 37 ft 3 kts 312°
2026-04-20 18:28 64.13157 -21.93553 37 ft 4 kts 359°
2026-04-20 18:29 64.13197 -21.93567 37 ft 6 kts 348°
2026-04-20 18:29 64.13244 -21.93578 37 ft 7 kts 355°
2026-04-20 18:29 64.13301 -21.93589 36 ft 8 kts 355°
2026-04-20 18:29 64.13367 -21.93598 36 ft 10 kts 357°
2026-04-20 18:30 64.13448 -21.93608 36 ft 11 kts 356°
2026-04-20 18:30 64.13538 -21.93628 35 ft 13 kts 353°
2026-04-20 18:30 64.13609 -21.93774 34 ft 13 kts 308°
2026-04-20 18:30 64.13636 -21.93856 33 ft 0 kts 302°
2026-04-20 18:31 64.13640 -21.93873 33 ft 1 kts 290°
2026-04-20 18:31 64.13638 -21.93913 33 ft 3 kts 236°
2026-04-20 18:31 64.13613 -21.93903 33 ft 5 kts 137°
2026-04-20 18:31 64.13593 -21.93882 34 ft 0 kts 175°
2026-04-20 18:32 64.13509 -21.93864 34 ft 42 kts 174°
2026-04-20 18:33 64.12968 -21.93767 36 ft 110 kts 175°
2026-04-20 18:33 64.12122 -21.93641 313 ft 134 kts 176°
2026-04-20 18:33 64.11107 -21.93494 782 ft 157 kts 176°
2026-04-20 18:33 64.10010 -21.92998 1428 ft 170 kts 152°
2026-04-20 18:34 64.09053 -21.91401 2202 ft 177 kts 137°
2026-04-20 18:34 64.08129 -21.89603 3069 ft 179 kts 138°
2026-04-20 18:34 64.07192 -21.87816 3887 ft 179 kts 139°
2026-04-20 18:34 64.06213 -21.86046 4613 ft 183 kts 135°
2026-04-20 18:35 64.05534 -21.83629 5341 ft 186 kts 118°
2026-04-20 18:35 64.04882 -21.81128 6070 ft 189 kts 121°
2026-04-20 18:35 64.04196 -21.78553 6786 ft 193 kts 122°
2026-04-20 18:35 64.03496 -21.75947 7542 ft 196 kts 121°
2026-04-20 18:36 64.02793 -21.73338 8278 ft 198 kts 121°
2026-04-20 18:36 64.02074 -21.70672 9015 ft 200 kts 121°
2026-04-20 18:36 64.01347 -21.67973 9753 ft 202 kts 121°
2026-04-20 18:36 64.00624 -21.65296 10483 ft 203 kts 120°
2026-04-20 18:37 63.99882 -21.62541 11191 ft 205 kts 120°
2026-04-20 18:37 63.99145 -21.59817 11871 ft 207 kts 120°
2026-04-20 18:37 63.98396 -21.57052 12573 ft 209 kts 120°
2026-04-20 18:37 63.97639 -21.54259 13263 ft 211 kts 120°
2026-04-20 18:38 63.96693 -21.51718 13923 ft 215 kts 142°
2026-04-20 18:38 63.95467 -21.49804 14580 ft 217 kts 141°
2026-04-20 18:38 63.94244 -21.47784 15206 ft 220 kts 142°
2026-04-20 18:38 63.93017 -21.45782 15829 ft 223 kts 142°
2026-04-20 18:39 63.91762 -21.43735 16466 ft 225 kts 142°
2026-04-20 18:39 63.90486 -21.41655 17088 ft 227 kts 142°
2026-04-20 18:39 63.89221 -21.39597 17681 ft 230 kts 142°
2026-04-20 18:39 63.87912 -21.37469 18283 ft 232 kts 142°
2026-04-20 18:40 63.86618 -21.35369 18872 ft 234 kts 142°
2026-04-20 18:40 63.85290 -21.33214 19480 ft 235 kts 142°
2026-04-20 18:40 63.83969 -21.31072 20065 ft 237 kts 143°
2026-04-20 18:40 63.82640 -21.28923 20637 ft 238 kts 143°
2026-04-20 18:41 63.81298 -21.26756 21201 ft 240 kts 143°
2026-04-20 18:41 63.79936 -21.24557 21762 ft 242 kts 143°
2026-04-20 18:41 63.78588 -21.22383 22304 ft 243 kts 143°
2026-04-20 18:41 63.77198 -21.20145 22844 ft 245 kts 143°
2026-04-20 18:42 63.75829 -21.17948 23377 ft 246 kts 142°
2026-04-20 18:42 63.74435 -21.15708 23902 ft 248 kts 142°
2026-04-20 18:42 63.73021 -21.13439 24384 ft 251 kts 142°
2026-04-20 18:42 63.71608 -21.11175 24841 ft 255 kts 142°
2026-04-20 18:43 63.70152 -21.08844 25314 ft 258 kts 142°
2026-04-20 18:43 63.68711 -21.06536 25769 ft 261 kts 143°
2026-04-20 18:43 63.67226 -21.04164 26223 ft 264 kts 143°
2026-04-20 18:43 63.65713 -21.01751 26670 ft 268 kts 143°
2026-04-20 18:44 63.64194 -20.99335 27114 ft 271 kts 143°
2026-04-20 18:44 63.62673 -20.96923 27547 ft 273 kts 143°
2026-04-20 18:44 63.61123 -20.94461 27973 ft 276 kts 143°
2026-04-20 18:44 63.59550 -20.91970 28393 ft 279 kts 143°
2026-04-20 18:45 63.57949 -20.89432 28812 ft 282 kts 143°
2026-04-20 18:45 63.56352 -20.86905 29207 ft 285 kts 143°
2026-04-20 18:45 63.54734 -20.84350 29605 ft 288 kts 143°
2026-04-20 18:45 63.53098 -20.81770 29996 ft 291 kts 143°
2026-04-20 18:46 63.51436 -20.79152 30370 ft 294 kts 143°
2026-04-20 18:46 63.49745 -20.76498 30750 ft 297 kts 143°
2026-04-20 18:46 63.48070 -20.73868 31175 ft 298 kts 143°
2026-04-20 18:46 63.46397 -20.71244 31646 ft 296 kts 143°
2026-04-20 18:47 63.44717 -20.68618 32099 ft 295 kts 143°
2026-04-20 18:47 63.43026 -20.65977 32532 ft 295 kts 143°
2026-04-20 18:47 63.41369 -20.63388 32948 ft 294 kts 143°
2026-04-20 18:47 63.39684 -20.60760 33372 ft 293 kts 143°
2026-04-20 18:48 63.38025 -20.58182 33762 ft 293 kts 143°
2026-04-20 18:48 63.36334 -20.55554 34145 ft 293 kts 143°
2026-04-20 18:48 63.34662 -20.52960 34539 ft 292 kts 143°
2026-04-20 18:48 63.32996 -20.50379 34904 ft 292 kts 142°
2026-04-20 18:49 63.31323 -20.47788 35249 ft 291 kts 142°
2026-04-20 18:49 63.29643 -20.45196 35581 ft 291 kts 142°
2026-04-20 18:49 63.27981 -20.42632 35896 ft 291 kts 142°
2026-04-20 18:49 63.26330 -20.40089 36203 ft 290 kts 142°
2026-04-20 18:50 63.24672 -20.37535 36517 ft 290 kts 142°
2026-04-20 18:50 63.23011 -20.34983 36827 ft 289 kts 143°
2026-04-20 18:50 63.21382 -20.32486 37182 ft 288 kts 143°
2026-04-20 18:50 63.19699 -20.29905 37267 ft 297 kts 143°
2026-04-20 18:51 63.17989 -20.27289 37261 ft 309 kts 143°
2026-04-20 18:51 63.16163 -20.24496 36801 ft 333 kts 143°
2026-04-20 18:51 63.14223 -20.21537 36695 ft 347 kts 143°
2026-04-20 18:51 63.12205 -20.18468 36668 ft 358 kts 143°
2026-04-20 18:52 63.10118 -20.15300 36664 ft 369 kts 143°
2026-04-20 18:52 63.08009 -20.12099 36663 ft 379 kts 143°
2026-04-20 18:52 63.03569 -20.05382 36661 ft 397 kts 143°
2026-04-20 18:53 62.98914 -19.98364 36657 ft 414 kts 143°
2026-04-20 18:53 62.94103 -19.91095 36655 ft 429 kts 143°
2026-04-20 18:54 62.89133 -19.83627 36654 ft 438 kts 143°
2026-04-20 18:54 62.84104 -19.76100 36661 ft 440 kts 143°
2026-04-20 18:55 62.79066 -19.68588 36658 ft 442 kts 143°
2026-04-20 18:55 62.74018 -19.61093 36661 ft 443 kts 143°
2026-04-20 18:56 62.68902 -19.53532 36655 ft 445 kts 143°
2026-04-20 18:56 62.63802 -19.46027 36648 ft 446 kts 142°
2026-04-20 18:57 62.58664 -19.38490 36647 ft 447 kts 142°
2026-04-20 18:57 62.53502 -19.30957 36648 ft 448 kts 143°
2026-04-20 18:58 62.48347 -19.23463 36647 ft 449 kts 143°
2026-04-20 18:58 62.43189 -19.15997 36646 ft 450 kts 143°
2026-04-20 18:59 62.38007 -19.08529 36643 ft 451 kts 143°
2026-04-20 18:59 62.32796 -19.01051 36636 ft 452 kts 143°
2026-04-20 19:00 62.27575 -18.93593 36632 ft 453 kts 143°
2026-04-20 19:00 62.22391 -18.86215 36633 ft 450 kts 143°
2026-04-20 19:01 62.17236 -18.78910 36631 ft 443 kts 142°
2026-04-20 19:01 62.12106 -18.71672 36632 ft 441 kts 142°
2026-04-20 19:02 62.07013 -18.64508 36640 ft 439 kts 142°
2026-04-20 19:02 62.01937 -18.57407 36647 ft 438 kts 142°
2026-04-20 19:03 61.96862 -18.50330 36647 ft 437 kts 142°
2026-04-20 19:03 61.91805 -18.43312 36646 ft 436 kts 142°
2026-04-20 19:04 61.86768 -18.36344 36641 ft 435 kts 142°
2026-04-20 19:04 61.81720 -18.29388 36638 ft 434 kts 142°
2026-04-20 19:05 61.76685 -18.22482 36641 ft 433 kts 142°
2026-04-20 19:05 61.71631 -18.15576 36637 ft 433 kts 142°
2026-04-20 19:06 61.66612 -18.08745 36634 ft 432 kts 142°
2026-04-20 19:06 61.61573 -18.01911 36625 ft 432 kts 142°
2026-04-20 19:07 61.56559 -17.95141 36621 ft 432 kts 142°
2026-04-20 19:07 61.51505 -17.88340 36618 ft 433 kts 142°
2026-04-20 19:08 61.43885 -17.78140 36619 ft 435 kts 142°
2026-04-20 19:09 61.38809 -17.71378 36624 ft 436 kts 142°
2026-04-20 19:09 61.33715 -17.64621 36623 ft 437 kts 142°
2026-04-20 19:10 61.28572 -17.57825 36620 ft 438 kts 142°
2026-04-20 19:10 61.23424 -17.51048 36617 ft 439 kts 141°
2026-04-20 19:11 61.18298 -17.44325 36618 ft 440 kts 142°
2026-04-20 19:11 61.13124 -17.37567 36613 ft 441 kts 141°
2026-04-20 19:12 61.07930 -17.30807 36619 ft 442 kts 142°
2026-04-20 19:12 61.02769 -17.24121 36625 ft 443 kts 142°
2026-04-20 19:13 60.97563 -17.17397 36630 ft 443 kts 142°
2026-04-20 19:13 60.92351 -17.10693 36624 ft 444 kts 142°
2026-04-20 19:14 60.87125 -17.04003 36614 ft 445 kts 142°
2026-04-20 19:14 60.81896 -16.97330 36606 ft 445 kts 142°
2026-04-20 19:15 60.76651 -16.90668 36588 ft 445 kts 142°
2026-04-20 19:15 60.71416 -16.84038 36590 ft 445 kts 141°
2026-04-20 19:16 60.66172 -16.77424 36591 ft 444 kts 141°
2026-04-20 19:16 60.60952 -16.70865 36585 ft 444 kts 141°
2026-04-20 19:17 60.55715 -16.64316 36582 ft 444 kts 141°
2026-04-20 19:17 60.50466 -16.57771 36585 ft 444 kts 141°
2026-04-20 19:18 60.45240 -16.51278 36588 ft 443 kts 141°
2026-04-20 19:18 60.39961 -16.44747 36588 ft 443 kts 141°
2026-04-20 19:19 60.34716 -16.38287 36586 ft 443 kts 141°
2026-04-20 19:19 60.29464 -16.31837 36592 ft 443 kts 142°
2026-04-20 19:20 60.24235 -16.25445 36597 ft 444 kts 142°
2026-04-20 19:20 60.18950 -16.19006 36589 ft 444 kts 142°
2026-04-20 19:21 60.13691 -16.12625 36583 ft 444 kts 142°
2026-04-20 19:21 60.08407 -16.06236 36569 ft 445 kts 142°
2026-04-20 19:22 60.03146 -15.99898 36569 ft 445 kts 142°
2026-04-20 19:22 59.97858 -15.93549 36566 ft 445 kts 142°
2026-04-20 19:23 59.92546 -15.87199 36563 ft 445 kts 142°
2026-04-20 19:23 59.87260 -15.80905 36557 ft 445 kts 142°
2026-04-20 19:24 59.82001 -15.74665 36551 ft 444 kts 141°
2026-04-20 19:24 59.76699 -15.68401 36553 ft 443 kts 141°
2026-04-20 19:25 59.71408 -15.62166 36546 ft 442 kts 141°
2026-04-20 19:25 59.66170 -15.56020 36541 ft 442 kts 142°
2026-04-20 19:26 59.60903 -15.49865 36542 ft 441 kts 142°
2026-04-20 19:26 59.55651 -15.43745 36536 ft 440 kts 142°
2026-04-20 19:27 59.50396 -15.37646 36529 ft 440 kts 142°
2026-04-20 19:27 59.45149 -15.31580 36520 ft 440 kts 142°
2026-04-20 19:28 59.39854 -15.25477 36528 ft 440 kts 142°
2026-04-20 19:28 59.34585 -15.19430 36531 ft 440 kts 143°
2026-04-20 19:29 59.29299 -15.13388 36525 ft 440 kts 142°
2026-04-20 19:29 59.24052 -15.07405 36532 ft 440 kts 143°
2026-04-20 19:30 59.18731 -15.01366 36527 ft 440 kts 142°
2026-04-20 19:30 59.13458 -14.95399 36531 ft 441 kts 142°
2026-04-20 19:31 59.08176 -14.89444 36516 ft 440 kts 142°
2026-04-20 19:31 59.02909 -14.83528 36524 ft 440 kts 143°
2026-04-20 19:32 58.97611 -14.77600 36528 ft 440 kts 143°
2026-04-20 19:32 58.92357 -14.71743 36525 ft 441 kts 142°
2026-04-20 19:33 58.87048 -14.65838 36503 ft 440 kts 142°
2026-04-20 19:33 58.81778 -14.60005 36508 ft 439 kts 143°